Location: Maiden_LMO
(35.5760°N, 81.2120°W)
Time: 06:28:14
(UTC-04:00)

ADEOS II - Visible Passes

Search period start: 25 June 2016 00:00
Search period end: 05 July 2016 00:00
Orbit: 800 x 801 km, 98.3° (Epoch: 24 June)

Date Brightness Start Highest point End Pass type
(mag) Time Alt. Az. Time Alt. Az. Time Alt. Az.
25 Jun 3.7 05:12:51 10° NNE 05:17:35 33° E 05:22:17 10° SSE visible
26 Jun 4.6 04:47:29 10° NE 04:51:05 18° E 04:54:39 10° SE visible
28 Jun 2.9 05:33:15 10° NNE 05:38:25 54° E 05:43:31 10° S visible
29 Jun 3.9 05:07:23 10° NE 05:11:58 30° E 05:16:31 10° SSE visible
30 Jun 4.6 04:42:12 10° NE 04:45:26 16° E 04:48:39 10° SE visible
02 Jul 3.1 05:27:42 10° NNE 05:32:48 48° E 05:37:51 10° S visible
03 Jul 4.1 05:01:57 10° NE 05:06:20 26° E 05:10:42 10° SSE visible
04 Jul 4.7 04:36:59 10° ENE 04:39:48 14° E 04:42:35 10° SE visible
